TimeMST,TemperatureF,Dew PointF,Humidity,Sea Level PressureIn,VisibilityMPH,Wind Direction,Wind SpeedMPH,Gust SpeedMPH,PrecipitationIn,Events,Conditions,WindDirDegrees,DateUTC
12:15 AM,37.4,35.6,93,29.79,10.0,NW,8.1,-,N/A,,Mostly Cloudy,310,2012-11-22 07:15:00
12:35 AM,39.2,37.4,93,29.81,10.0,WNW,19.6,24.2,N/A,,Overcast,290,2012-11-22 07:35:00
12:55 AM,39.2,35.6,87,29.80,10.0,NW,17.3,23.0,N/A,,Mostly Cloudy,320,2012-11-22 07:55:00
1:15 AM,37.4,33.8,87,29.81,10.0,NW,19.6,27.6,N/A,,Scattered Clouds,320,2012-11-22 08:15:00
1:35 AM,37.4,33.8,87,29.81,10.0,NW,23.0,29.9,N/A,,Mostly Cloudy,320,2012-11-22 08:35:00
1:55 AM,37.4,32.0,81,29.83,10.0,NW,20.7,29.9,N/A,,Mostly Cloudy,320,2012-11-22 08:55:00
2:15 AM,35.6,32.0,87,29.85,10.0,NW,23.0,27.6,N/A,,Mostly Cloudy,310,2012-11-22 09:15:00
2:35 AM,35.6,30.2,81,29.86,10.0,NW,24.2,29.9,N/A,,Mostly Cloudy,310,2012-11-22 09:35:00
2:55 AM,35.6,30.2,81,29.88,10.0,NW,21.9,29.9,N/A,,Scattered Clouds,320,2012-11-22 09:55:00
3:15 AM,33.8,28.4,81,29.88,10.0,NW,21.9,28.8,N/A,,Scattered Clouds,320,2012-11-22 10:15:00
3:35 AM,33.8,28.4,81,29.88,10.0,NW,21.9,-,N/A,,Scattered Clouds,320,2012-11-22 10:35:00
3:55 AM,32.0,28.4,87,29.89,10.0,NW,19.6,27.6,N/A,,Scattered Clouds,320,2012-11-22 10:55:00
4:15 AM,30.2,26.6,86,29.90,10.0,NW,21.9,28.8,N/A,,Partly Cloudy,320,2012-11-22 11:15:00
4:35 AM,30.2,26.6,86,29.91,10.0,NW,17.3,27.6,N/A,,Partly Cloudy,310,2012-11-22 11:35:00
4:55 AM,30.2,26.6,86,29.92,10.0,NW,18.4,23.0,N/A,,Scattered Clouds,310,2012-11-22 11:55:00
5:15 AM,30.2,24.8,80,29.94,10.0,NW,21.9,27.6,N/A,,Overcast,310,2012-11-22 12:15:00
5:35 AM,30.2,24.8,80,29.97,10.0,NW,15.0,26.5,N/A,,Overcast,310,2012-11-22 12:35:00
5:55 AM,30.2,24.8,80,29.99,10.0,NNW,10.4,18.4,N/A,,Overcast,330,2012-11-22 12:55:00
6:15 AM,30.2,24.8,80,30.00,10.0,NW,15.0,-,N/A,,Overcast,320,2012-11-22 13:15:00
6:35 AM,30.2,24.8,80,30.00,10.0,NW,12.7,-,N/A,,Overcast,320,2012-11-22 13:35:00
6:55 AM,28.4,23.0,80,30.02,10.0,NW,15.0,21.9,N/A,,Overcast,320,2012-11-22 13:55:00
7:15 AM,28.4,23.0,80,30.03,10.0,NW,17.3,-,N/A,,Overcast,320,2012-11-22 14:15:00
7:35 AM,28.4,23.0,80,30.04,10.0,NW,11.5,-,N/A,,Overcast,310,2012-11-22 14:35:00
7:55 AM,28.4,23.0,80,30.06,10.0,NW,13.8,17.3,N/A,,Overcast,320,2012-11-22 14:55:00
8:15 AM,28.4,23.0,80,30.07,10.0,NW,17.3,25.3,N/A,,Overcast,310,2012-11-22 15:15:00
8:35 AM,28.4,23.0,80,30.07,10.0,NW,20.7,26.5,N/A,,Overcast,310,2012-11-22 15:35:00
8:55 AM,28.4,23.0,80,30.08,10.0,NNW,18.4,24.2,N/A,,Overcast,330,2012-11-22 15:55:00
9:15 AM,26.6,21.2,80,30.11,10.0,NNW,15.0,21.9,N/A,,Overcast,340,2012-11-22 16:15:00
9:35 AM,26.6,19.4,74,30.12,10.0,NNW,16.1,24.2,N/A,,Overcast,330,2012-11-22 16:35:00
9:55 AM,24.8,17.6,74,30.14,10.0,NNW,17.3,-,N/A,,Overcast,340,2012-11-22 16:55:00
10:15 AM,24.8,17.6,74,30.16,10.0,NW,17.3,21.9,N/A,,Overcast,320,2012-11-22 17:15:00
10:35 AM,24.8,15.8,69,30.17,10.0,NW,17.3,27.6,N/A,,Overcast,320,2012-11-22 17:35:00
10:55 AM,23.0,12.2,63,30.17,10.0,NW,21.9,28.8,N/A,,Overcast,310,2012-11-22 17:55:00
11:15 AM,23.0,12.2,63,30.19,10.0,NW,18.4,26.5,N/A,,Overcast,320,2012-11-22 18:15:00
11:35 AM,23.0,14.0,68,30.20,10.0,NW,21.9,26.5,N/A,,Mostly Cloudy,310,2012-11-22 18:35:00
11:55 AM,21.2,15.8,80,30.21,3.0,NW,19.6,26.5,N/A,,Overcast,320,2012-11-22 18:55:00
12:15 PM,21.2,12.2,68,30.22,9.0,WNW,28.8,34.5,N/A,,Overcast,300,2012-11-22 19:15:00
12:35 PM,23.0,10.4,59,30.24,10.0,WNW,28.8,35.7,N/A,,Mostly Cloudy,300,2012-11-22 19:35:00
12:55 PM,19.4,10.4,68,30.25,10.0,NW,23.0,31.1,N/A,,Overcast,310,2012-11-22 19:55:00
1:15 PM,19.4,8.6,63,30.27,10.0,NW,24.2,28.8,N/A,,Overcast,310,2012-11-22 20:15:00
1:35 PM,19.4,8.6,63,30.27,9.0,NW,21.9,29.9,N/A,,Overcast,310,2012-11-22 20:35:00
1:55 PM,19.4,8.6,63,30.29,10.0,NW,19.6,29.9,N/A,,Overcast,310,2012-11-22 20:55:00
2:15 PM,17.6,8.6,68,30.31,10.0,NW,20.7,31.1,N/A,,Overcast,310,2012-11-22 21:15:00
2:35 PM,17.6,8.6,68,30.32,10.0,NW,25.3,31.1,N/A,,Overcast,310,2012-11-22 21:35:00
2:55 PM,17.6,8.6,68,30.33,10.0,NW,23.0,28.8,N/A,,Overcast,310,2012-11-22 21:55:00
3:15 PM,17.6,8.6,68,30.35,10.0,NW,21.9,28.8,N/A,,Overcast,310,2012-11-22 22:15:00
3:35 PM,17.6,8.6,68,30.36,10.0,NW,21.9,29.9,N/A,,Overcast,310,2012-11-22 22:35:00
3:55 PM,17.6,8.6,68,30.38,10.0,WNW,20.7,27.6,N/A,,Overcast,300,2012-11-22 22:55:00
4:15 PM,17.6,6.8,63,30.39,10.0,NW,24.2,31.1,N/A,,Overcast,310,2012-11-22 23:15:00
4:35 PM,17.6,8.6,68,30.40,10.0,WNW,19.6,28.8,N/A,,Overcast,300,2012-11-22 23:35:00
4:55 PM,15.8,6.8,68,30.42,10.0,WNW,18.4,25.3,N/A,,Overcast,300,2012-11-22 23:55:00
5:15 PM,15.8,6.8,68,30.43,10.0,NW,16.1,-,N/A,,Scattered Clouds,320,2012-11-23 00:15:00
5:35 PM,15.8,8.6,73,30.43,10.0,WNW,16.1,23.0,N/A,,Clear,300,2012-11-23 00:35:00
5:55 PM,15.8,8.6,73,30.44,10.0,NW,13.8,-,N/A,,Clear,310,2012-11-23 00:55:00
6:15 PM,15.8,6.8,68,30.44,10.0,NW,15.0,-,N/A,,Clear,310,2012-11-23 01:15:00
6:35 PM,15.8,8.6,73,30.45,10.0,NW,13.8,18.4,N/A,,Clear,310,2012-11-23 01:35:00
6:55 PM,15.8,6.8,68,30.46,10.0,NW,11.5,16.1,N/A,,Clear,310,2012-11-23 01:55:00
7:15 PM,14.0,6.8,73,30.46,10.0,WNW,15.0,-,N/A,,Clear,290,2012-11-23 02:15:00
7:35 PM,14.0,6.8,73,30.47,10.0,WNW,13.8,18.4,N/A,,Clear,300,2012-11-23 02:35:00
7:55 PM,14.0,6.8,73,30.49,10.0,NW,9.2,-,N/A,,Clear,310,2012-11-23 02:55:00
8:15 PM,14.0,6.8,73,30.49,10.0,NW,10.4,-,N/A,,Clear,310,2012-11-23 03:15:00
8:55 PM,12.2,6.8,79,30.49,10.0,WNW,8.1,-,N/A,,Clear,290,2012-11-23 03:55:00
9:15 PM,12.2,6.8,79,30.49,10.0,WNW,10.4,-,N/A,,Clear,300,2012-11-23 04:15:00
9:35 PM,12.2,6.8,79,30.49,10.0,West,4.6,-,N/A,,Clear,280,2012-11-23 04:35:00
9:55 PM,12.2,6.8,79,30.49,10.0,West,9.2,-,N/A,,Clear,280,2012-11-23 04:55:00
10:15 PM,10.4,5.0,79,30.49,10.0,West,4.6,-,N/A,,Clear,260,2012-11-23 05:15:00
10:35 PM,10.4,6.8,85,30.50,10.0,West,6.9,-,N/A,,Clear,280,2012-11-23 05:35:00
10:55 PM,10.4,8.6,92,30.50,10.0,West,8.1,-,N/A,,Clear,280,2012-11-23 05:55:00
11:15 PM,10.4,5.0,79,30.50,10.0,WNW,6.9,-,N/A,,Clear,290,2012-11-23 06:15:00
11:35 PM,10.4,5.0,79,30.51,10.0,WSW,5.8,-,N/A,,Clear,250,2012-11-23 06:35:00
11:55 PM,10.4,5.0,79,30.51,10.0,West,3.5,-,N/A,,Clear,260,2012-11-23 06:55:00